Location: George Washington National Forest Helicopter Landing Site
(38.6463°N, 79.0851°W)
Time: 20:05:17
(UTC-04:00)

Tiros 1 despin weight - Pass Details

Date: 25 August 2019
Orbit: 594 x 642 km, 48.2° (Epoch: 19 September)

Event Time Altitude Azimuth Distance (km) Brightness Sun altitude
Rises 03:38:59 0° 301° (WNW) 2,857 - -30.7°
Reaches altitude 10° 03:41:31 10° 313° (NW) 1,961 - -30.4°
Exits shadow 03:44:43 28° 356° (N) 1,166 ? -29.9°
Maximum altitude 03:45:28 29° 14° (NNE) 1,126 ? -29.8°
Drops below altitude 10° 03:49:28 10° 75° (ENE) 1,985 ? -29.3°
Sets 03:52:03 0° 87° (E) 2,899 ? -29.0°
